Simultaneous Nadir Overpasses (SNOs) Predictions

Prediction of SNOs between GOES-15 and NOAA-20 Satellite Orbit:

Table of predicted SNOs for the next 14.0 days since TLE Epoch: 4/2/2022
Index Date Time (GOES-15) GOES-15 Lat,Lon NOAA-20 Lat,Lon Distance(km) Time Diff (sec)
1 04/02/2022 10:02:06 0.11,-128.38 0.21,-128.82 50.23 80
2 04/03/2022 09:40:43 0.11,-128.39 -0.82,-124.30 466.76 80
3 04/04/2022 22:02:40 -0.11,-128.41 -0.36,-129.60 135.01 80
4 04/05/2022 21:46:35 -0.11,-128.42 0.62,-125.06 381.86 80
5 04/07/2022 10:08:25 0.12,-128.41 0.53,-130.34 219.93 80
6 04/08/2022 09:47:00 0.12,-128.41 -0.45,-125.80 296.43 80
7 04/09/2022 22:08:57 -0.12,-128.42 -0.73,-131.11 306.70 80
8 04/10/2022 21:52:53 -0.13,-128.41 0.26,-126.57 209.64 80
9 04/12/2022 10:14:42 0.13,-128.40 0.89,-131.85 392.63 80
10 04/13/2022 09:53:18 0.13,-128.39 -0.10,-127.31 123.31 80
11 04/14/2022 22:15:15 -0.13,-128.40 -1.07,-132.62 480.84 80
12 04/15/2022 21:59:11 -0.13,-128.39 -0.08,-128.08 35.04 80
